Starlink 6073

operational
NORAD ID: 56807 Int'l Des: 2023-078 Owner: SPXS Country: US Constellation: starlink
LEOCIRCULAR

Starlink 6073について

説明を読み込み中...

リアルタイム位置

3D地球を読み込み中...

次回通過

高度履歴

Altitude vs Time

uPlot chart will show altitude changes over time

軌道要素

1 56807U 23078AS 26062.18642347 .00001379 00000-0 12333-3 0 9992
2 56807 70.0036 340.6800 0002740 266.8196 93.2649 14.98330310152201
Epoch: Mar 3, 2026 • Age: 21 hours

現在のステータス

高度 584.4 km
速度 7.57 km/s
衛星直下点 65.01°N, 8.12°W
打ち上げ日 May 31, 2023
運用期間 2.7 years
タイプ internet

技術仕様

分類 Payload
質量 305.00 kg
乾燥質量 290.00 kg
総質量 305.00 kg
長さ 0.20 m
直径 2.80 m
スパン 9.00 m
形状 Box + pan
製造者 SPXS
バスタイプ Starlink
フェーズステータス In Orbit
所有者/国 SPXS/US

大規模コンステレーション

Loading constellations...